[[{"header":{"parameterUnit":"m.s-1","parameterCategory":1,"la1":30.2991,"la2":30.254,"lo1":-89.0895,"lo2":-89.0444,"dy":0.0017,"dx":0.0017,"nx":28,"ny":28,"refTime":"2025-08-03T09:00:00:Z","depth":0,"parameterNumber":2,"parameterNumberName":"U-component_of_WINDS"},"data":[0,0,0,0,0,0,0,0,0,0,0,0,0,0,0,0,0,0,0,0,0,0,0,0,0,0,0,0,0,0,0,0,0,0,0,0,0,0,0,0,0,0,0,0,0,0,0,0,0,0,0,0,0,0,0,0,0,0,0.6884,0.6885,0,0.6952,0.6953,0.6954,0.6912,0.691,0.6908,0.6906,0.6986,0.699,0.6994,0,0,0,0,0,0,0,0,0,0,0,0,0,0.673,0.6733,0.6884,0.6885,0.6886,0.6952,0.6953,0.6954,0.6912,0.6909,0.6907,0.6905,0.6984,0.6989,0.6994,0,0,0,0,0,0,0,0,0,0,0,0,0,0.6798,0.6734,0.6884,0.6872,0.6872,0.6952,0.6953,0.6954,0.6912,0.6909,0.6906,0.6904,0.6983,0.6989,0.6995,0.7092,0,0,0.7013,0.7016,0,0,0,0,0,0,0,0,0.6794,0.6803,0.6873,0.6873,0.6873,0.692,0.6928,0.7001,0.6913,0.6898,0.6906,0.6902,0.6967,0.6974,0.6994,0.7096,0.7099,0.7013,0.7017,0.702,0.7021,0,0,0,0,0,0,0,0.6789,0.68,0.6911,0.6875,0.6874,0.6868,0.6874,0.6941,0.6949,0.6899,0.6896,0.6904,0.6966,0.6988,0.6995,0.7101,0.7013,0.7019,0.7022,0.7025,0.7292,0.7295,0,0,0,0,0,0,0.6784,0.6797,0.6909,0.6913,0.6825,0.6873,0.688,0.6908,0.6948,0.6951,0.6906,0.6902,0.6979,0.6988,0.6998,0.7118,0.702,0.7025,0.7029,0.7289,0.7293,0.7296,0,0,0,0,0,0,0.6781,0.6794,0.6906,0.6854,0.6868,0.6879,0.6911,0.6911,0.6933,0.6953,0.6956,0.6926,0.6977,0.699,0.707,0.712,0.7028,0.7033,0.7284,0.729,0.7295,0.7358,0,0,0,0,0,0,0.6776,0.6793,0.6827,0.6855,0.6871,0.6973,0.6914,0.6915,0.6942,0.6936,0.6973,0.6976,0.6976,0.7061,0.7076,0.7127,0.7038,0.728,0.7287,0.7293,0.7351,0.7365,0.7376,0,0,0,0,0,0.6771,0.6844,0.6829,0.6843,0.6913,0.6976,0.6985,0.6981,0.6946,0.6983,0.6997,0.6975,0.7112,0.7069,0.7086,0.714,0.7277,0.7285,0.7292,0.7346,0.7362,0.7376,0,0,0,0,0,0,0.6825,0.6847,0.6831,0.6914,0.6943,0.6969,0.7014,0.6997,0.7039,0.7033,0.7028,0.7037,0.7121,0.7138,0.709,0.7239,0.719,0.7201,0.7225,0.724,0.7252,0.7248,0.7043,0,0,0,0,0,0.6846,0.6891,0.691,0.6981,0.6996,0.7003,0.703,0.7024,0.7055,0.7068,0.7088,0.7122,0.7174,0.7208,0.7255,0.7353,0.7363,0.7399,0.7411,0.7421,0.7432,0.749,0.7507,0.7322,0.7322,0.7322,0,0,0.6891,0.6908,0.6938,0.6993,0.7014,0.7066,0.7014,0.7069,0.7109,0.7078,0.7154,0.7171,0.7209,0.7299,0.734,0.7316,0.7485,0.7431,0.7439,0.7445,0.75,0.7517,0.7533,0.7328,0.7327,0.7326,0,0,0.6999,0.7015,0.7078,0.7101,0.7133,0.7138,0.7153,0.7182,0.7191,0.7267,0.7245,0.7295,0.7381,0.7411,0.7437,0.756,0.7544,0.7576,0.7642,0.7698,0.7713,0.7726,0.7774,0.7791,0.7587,0.7587,0.7587,0,0.7052,0.7124,0.7114,0.7172,0.7199,0.717,0.7237,0.7261,0.7309,0.7331,0.7302,0.7413,0.7437,0.7536,0.7566,0.7587,0.7608,0.7573,0.7711,0.7724,0.7736,0.7782,0.7799,0.7591,0.759,0.759,0.759,0,0.719,0.7241,0.7289,0.7333,0.7366,0.7428,0.7431,0.7466,0.7458,0.7467,0.7548,0.7575,0.763,0.7653,0.7646,0.7753,0.7737,0.771,0.7661,0.7758,0.7801,0.7818,0.7597,0.7595,0.7594,0.7593,0,0,0.7334,0.7372,0.739,0.7412,0.7447,0.7489,0.7552,0.7603,0.7635,0.767,0.7727,0.7802,0.7778,0.7808,0.7805,0.7854,0.7955,0.7821,0.7822,0.7848,0.8079,0.8102,0.8122,0.7943,0.7946,0.7949,0.8077,0,0.7447,0.7553,0.7547,0.7649,0.7699,0.7674,0.773,0.776,0.7771,0.7819,0.7832,0.7887,0.7849,0.7867,0.7914,0.7932,0.8002,0.7923,0.8001,0.8003,0.7994,0.8144,0.8167,0.8287,0.8094,0.8097,0.8099,0,0.7592,0.763,0.7736,0.7767,0.7788,0.7838,0.7886,0.793,0.7966,0.7971,0.8006,0.7996,0.8065,0.8012,0.8111,0.8058,0.8089,0.8104,0.8108,0.8118,0.8059,0.8161,0.8324,0.8344,0.8124,0.8122,0.812,0,0.7691,0.7769,0.7844,0.7862,0.7899,0.7936,0.7954,0.7986,0.8018,0.8062,0.8084,0.8136,0.8165,0.8208,0.8214,0.8175,0.8316,0.8262,0.8326,0.8326,0.8359,0.8357,0.8533,0.8374,0.8374,0.8373,0.8373,0,0.782,0.7887,0.7889,0.7935,0.8011,0.8006,0.8083,0.8098,0.8127,0.818,0.8162,0.8212,0.8216,0.8269,0.8275,0.8359,0.8371,0.8381,0.8382,0.8384,0.8384,0.8407,0.84,0.8378,0.8377,0.8376,0.8375,0,0.7944,0.7947,0.8027,0.8055,0.8064,0.812,0.8146,0.8193,0.8202,0.8269,0.8285,0.8301,0.8363,0.8373,0.8447,0.8451,0.8552,0.8543,0.8539,0.8539,0.8604,0.8599,0.8804,0.8832,0.8651,0.8653,0.8654,0,0.8027,0.8078,0.8111,0.8143,0.8162,0.8215,0.8247,0.8245,0.828,0.8327,0.837,0.8429,0.8477,0.8579,0.86,0.8658,0.8653,0.8721,0.8662,0.8663,0.8659,0.8657,0.8664,0.8733,0.8735,0.8736,0.8738,0,0.8176,0.8175,0.822,0.8268,0.8307,0.8345,0.8381,0.8409,0.8413,0.8454,0.8516,0.8553,0.8628,0.869,0.8747,0.8771,0.8758,0.8756,0.8774,0.8778,0.8775,0.8782,0.8574,0.8752,0.875,0.8749,0.8748,0.8748,0.8285,0.833,0.8361,0.8414,0.844,0.8475,0.8521,0.8535,0.8586,0.8644,0.8641,0.8711,0.875,0.8825,0.8853,0.8911,0.889,0.8915,0.8923,0.893,0.8938,0.8763,0.8921,0.8921,0.892,0.892,0.892,0,0.8436,0.8454,0.8502,0.8553,0.8595,0.8574,0.8614,0.8653,0.8713,0.8748,0.8796,0.887,0.893,0.8957,0.9017,0.9059,0.9055,0.9076,0.9074,0.9081,0.8951,0.8931,0.9078,0.9078,0.9078,0.9078,0.9078,0.9078,0.8519,0.8596,0.86,0.8692,0.8711,0.8777,0.8802,0.8836,0.8865,0.8947,0.8995,0.9011,0.9045,0.9108,0.9165,0.9172,0.9197,0.9222,0.9226,0.9105,0.9089,0.9074,0.9055,0.9226,0.9226,0.9351,0.9352,0.9353]},{"header":{"parameterUnit":"m.s-1","parameterCategory":1,"la1":30.2991,"la2":30.254,"lo1":-89.0895,"lo2":-89.0444,"dy":0.0017,"dx":0.0017,"nx":28,"ny":28,"refTime":"2025-08-03T09:00:00:Z","depth":0,"parameterNumber":3,"parameterNumberName":"V-component_of_WINDS"},"data":[0,0,0,0,0,0,0,0,0,0,0,0,0,0,0,0,0,0,0,0,0,0,0,0,0,0,0,0,0,0,0,0,0,0,0,0,0,0,0,0,0,0,0,0,0,0,0,0,0,0,0,0,0,0,0,0,0,0,-1.2716,-1.2714,0,-1.2537,-1.2535,-1.2533,-1.2487,-1.2488,-1.2489,-1.249,-1.2296,-1.229,-1.2283,0,0,0,0,0,0,0,0,0,0,0,0,0,-1.3007,-1.3002,-1.2716,-1.2714,-1.2712,-1.2537,-1.2535,-1.2532,-1.2487,-1.2488,-1.2489,-1.2491,-1.2298,-1.229,-1.2283,0,0,0,0,0,0,0,0,0,0,0,0,0,-1.2859,-1.3,-1.2717,-1.2668,-1.2662,-1.2538,-1.2535,-1.2532,-1.2486,-1.2488,-1.249,-1.2491,-1.23,-1.2291,-1.2282,-1.2189,0,0,-1.2253,-1.2249,0,0,0,0,0,0,0,0,-1.2867,-1.2848,-1.2678,-1.2671,-1.2664,-1.2536,-1.2566,-1.2416,-1.2486,-1.2553,-1.249,-1.2492,-1.2374,-1.2358,-1.232,-1.218,-1.2172,-1.2252,-1.2247,-1.2243,-1.224,0,0,0,0,0,0,0,-1.2878,-1.2856,-1.2645,-1.2675,-1.2667,-1.2651,-1.2632,-1.2537,-1.2455,-1.2547,-1.2543,-1.2523,-1.237,-1.233,-1.2316,-1.2169,-1.2253,-1.2244,-1.2238,-1.2235,-1.1939,-1.1937,0,0,0,0,0,0,-1.2898,-1.2865,-1.2651,-1.264,-1.2773,-1.2645,-1.2623,-1.2575,-1.2456,-1.244,-1.2522,-1.2522,-1.2345,-1.2327,-1.2309,-1.2189,-1.2243,-1.2234,-1.2228,-1.1941,-1.1939,-1.1936,0,0,0,0,0,0,-1.2904,-1.2879,-1.2658,-1.2751,-1.2722,-1.2638,-1.2584,-1.2571,-1.2531,-1.2438,-1.2421,-1.2497,-1.2345,-1.2322,-1.2219,-1.2182,-1.223,-1.2221,-1.1944,-1.194,-1.1937,-1.1953,0,0,0,0,0,0,-1.2913,-1.2882,-1.2849,-1.2751,-1.2717,-1.2575,-1.2582,-1.2566,-1.2516,-1.2514,-1.2409,-1.2393,-1.2345,-1.2233,-1.221,-1.217,-1.2214,-1.1947,-1.1942,-1.1938,-1.1955,-1.195,-1.1946,0,0,0,0,0,-1.2924,-1.2859,-1.2848,-1.2822,-1.2675,-1.2573,-1.2554,-1.2502,-1.2513,-1.2477,-1.2417,-1.2397,-1.2191,-1.2223,-1.2196,-1.2153,-1.1949,-1.1944,-1.1939,-1.1957,-1.1951,-1.1946,0,0,0,0,0,0,-1.2952,-1.2845,-1.2832,-1.2735,-1.2664,-1.2566,-1.2519,-1.2498,-1.242,-1.2421,-1.2357,-1.2334,-1.2235,-1.2184,-1.2222,-1.2055,-1.2069,-1.2058,-1.2092,-1.2086,-1.2082,-1.2094,-1.2206,0,0,0,0,0,-1.2948,-1.2878,-1.2787,-1.271,-1.2675,-1.2604,-1.2557,-1.2524,-1.2447,-1.2415,-1.2348,-1.227,-1.2187,-1.2134,-1.2053,-1.1948,-1.1922,-1.1905,-1.19,-1.1897,-1.1888,-1.1824,-1.1814,-1.192,-1.192,-1.192,0,0,-1.2936,-1.287,-1.2829,-1.2714,-1.2655,-1.258,-1.2578,-1.25,-1.2442,-1.2402,-1.2301,-1.2249,-1.2158,-1.2053,-1.2003,-1.2007,-1.1853,-1.1891,-1.1889,-1.1881,-1.1818,-1.1808,-1.1799,-1.1916,-1.1917,-1.1917,0,0,-1.2877,-1.2822,-1.275,-1.2691,-1.2604,-1.2556,-1.2539,-1.2443,-1.2408,-1.2307,-1.2274,-1.2202,-1.2063,-1.1998,-1.1947,-1.1861,-1.1838,-1.1836,-1.1812,-1.1751,-1.1742,-1.1735,-1.17,-1.1689,-1.1828,-1.1828,-1.1828,0,-1.2874,-1.2764,-1.2715,-1.2637,-1.2585,-1.2549,-1.2472,-1.2417,-1.2305,-1.2268,-1.2276,-1.2098,-1.2034,-1.1911,-1.1891,-1.1852,-1.1826,-1.1847,-1.1749,-1.174,-1.1732,-1.1698,-1.1686,-1.1828,-1.1828,-1.1828,-1.1828,0,-1.2761,-1.2685,-1.2636,-1.2533,-1.2475,-1.2399,-1.2334,-1.2281,-1.2252,-1.2203,-1.2097,-1.202,-1.1921,-1.189,-1.186,-1.1761,-1.1766,-1.1762,-1.1774,-1.1723,-1.169,-1.1677,-1.1828,-1.1828,-1.1828,-1.1828,0,0,-1.2714,-1.2585,-1.2567,-1.2518,-1.2418,-1.2356,-1.2275,-1.2182,-1.2136,-1.206,-1.1988,-1.187,-1.1865,-1.1806,-1.1769,-1.1715,-1.1648,-1.1717,-1.1713,-1.1704,-1.1529,-1.1531,-1.1518,-1.1633,-1.1631,-1.1629,-1.1536,0,-1.264,-1.25,-1.2453,-1.2334,-1.226,-1.2224,-1.2153,-1.2081,-1.2032,-1.1959,-1.1903,-1.1819,-1.1821,-1.1785,-1.1731,-1.1668,-1.1611,-1.1674,-1.1561,-1.1557,-1.1582,-1.1501,-1.1503,-1.1419,-1.1523,-1.1521,-1.1519,0,-1.2536,-1.2461,-1.2336,-1.2242,-1.2209,-1.2147,-1.2056,-1.1988,-1.1904,-1.1871,-1.1806,-1.1772,-1.1682,-1.1702,-1.1574,-1.1618,-1.1568,-1.153,-1.1525,-1.151,-1.1533,-1.148,-1.1392,-1.1378,-1.1499,-1.1501,-1.1502,0,-1.251,-1.2378,-1.2285,-1.2244,-1.2134,-1.209,-1.2041,-1.196,-1.1905,-1.1824,-1.1787,-1.1696,-1.1645,-1.1573,-1.1513,-1.1534,-1.1389,-1.1405,-1.1355,-1.1356,-1.1324,-1.1326,-1.1223,-1.1298,-1.1298,-1.1299,-1.1299,0,-1.2431,-1.2355,-1.2272,-1.2214,-1.2126,-1.2071,-1.1984,-1.1932,-1.1859,-1.1787,-1.175,-1.1683,-1.161,-1.1531,-1.1484,-1.1383,-1.1361,-1.1328,-1.1316,-1.133,-1.1334,-1.1294,-1.1297,-1.1295,-1.1296,-1.1297,-1.1297,0,-1.2386,-1.2329,-1.2224,-1.2128,-1.2102,-1.2041,-1.1957,-1.1897,-1.1847,-1.1756,-1.1731,-1.165,-1.1556,-1.1491,-1.1369,-1.1337,-1.1226,-1.1216,-1.1256,-1.1249,-1.1202,-1.1206,-1.1067,-1.1044,-1.1138,-1.1138,-1.1137,0,-1.2339,-1.2279,-1.2177,-1.2128,-1.208,-1.2002,-1.1947,-1.1888,-1.1831,-1.173,-1.1681,-1.1585,-1.1505,-1.1356,-1.1283,-1.1189,-1.1174,-1.1132,-1.1159,-1.1174,-1.1168,-1.1172,-1.1163,-1.1127,-1.1126,-1.1126,-1.1125,0,-1.2258,-1.2232,-1.2156,-1.2069,-1.2005,-1.1932,-1.1859,-1.182,-1.1748,-1.1685,-1.159,-1.1528,-1.1404,-1.1308,-1.1206,-1.1151,-1.1123,-1.1118,-1.11,-1.1112,-1.1136,-1.1119,-1.1241,-1.112,-1.1121,-1.1121,-1.1121,-1.1121,-1.2207,-1.2152,-1.2071,-1.1986,-1.1926,-1.1858,-1.1797,-1.1739,-1.166,-1.1557,-1.1526,-1.1426,-1.1339,-1.1201,-1.1144,-1.1062,-1.1064,-1.104,-1.1033,-1.1028,-1.1026,-1.1153,-1.1043,-1.1043,-1.1043,-1.1043,-1.1043,0,-1.2122,-1.2068,-1.1991,-1.1891,-1.1823,-1.1808,-1.1726,-1.1668,-1.1582,-1.1506,-1.1428,-1.1316,-1.1222,-1.1142,-1.1043,-1.0992,-1.0977,-1.0968,-1.0969,-1.0956,-1.1031,-1.1055,-1.0982,-1.0982,-1.0982,-1.0982,-1.0982,-1.0982,-1.2069,-1.1974,-1.1937,-1.1809,-1.1755,-1.1659,-1.1613,-1.1548,-1.1486,-1.1364,-1.1287,-1.1237,-1.1157,-1.1052,-1.0963,-1.0942,-1.0905,-1.0898,-1.0873,-1.0944,-1.0951,-1.0958,-1.0979,-1.0892,-1.0892,-1.0804,-1.0803,-1.0803]}]]